Temp
63 63 63 63 63 63 63 63 63 63 63 63 63 63 63 63 63 83 96 89 92 74 77 101 101 103 104 102 103 91 63 82 81 77 79 86 81 81 83 70 67 66 67 66 68
63 63 63 62 62 62 62 62 63 63 63 63 63 63 63 63 86 100 80 77 76 76 100 99 98 100 99 98 101 82 74 82 89 88 84 85 84 81 74 70 63 61 66 67 69
62 62 62 62 62 62 62 62 62 63 63 63 63 63 63 68 90 98 78 76 76 83 104 106 104 101 96 100 96 95 84 88 88 89 90 84 81 84 75 61 63 59 61 64 66
61 62 62 62 62 62 62 62 62 63 63 63 62 63 63 84 84 101 80 77 77 98 104 102 101 96 93 90 94 87 90 89 86 88 86 81 82 72 73 61 65 66 69 69 66
60 61 61 61 61 61 61 61 62 62 62 62 62 63 78 92 96 97 77 81 97 100 101 99 97 97 89 92 92 88 87 88 87 87 86 85 78 68 61 65 68 68 68 65 63
60 60 60 60 61 61 60 60 60 61 61 62 63 62 87 90 107 104 105 100 105 103 103 102 101 101 94 91 90 90 88 86 87 85 83 77 75 76 67 71 70 70 70 73 73
60 60 60 60 60 60 60 60 60 60 62 63 64 83 94 96 110 110 107 107 107 107 102 105 104 99 94 87 93 90 82 83 83 83 80 81 72 66 72 73 70 71 72 74 75
60 59 60 60 60 60 61 60 60 61 62 64 65 89 95 109 113 108 110 107 109 109 105 105 106 99 96 95 89 84 83 68 82 82 81 80 65 70 74 72 69 72 74 75 76
59 59 59 60 60 60 60 60 61 62 64 66 86 95 94 90 103 109 111 104 106 106 105 103 103 95 92 86 60 61 51 55 75 84 82 78 64 70 74 70 70 73 74 72 74
59 58 59 59 60 60 59 59 60 65 74 92 97 92 100 98 106 106 109 107 101 101 97 98 97 90 90 85 68 66 58 76 77 79 80 75 67 67 70 68 72 70 71 73 72
58 58 58 59 59 59 67 88 91 90 95 94 96 95 100 105 107 103 107 103 103 98 90 95 88 83 88 90 89 85 83 80 80 81 78 74 69 67 67 67 72 71 70 71 74
58 58 58 59 59 59 75 96 96 100 91 100 98 98 101 105 95 101 108 96 95 88 93 90 84 91 92 90 87 85 81 70 72 78 77 76 70 67 67 68 70 69 69 71 71
57 57 58 59 59 69 99 98 106 104 92 94 99 99 99 103 95 97 102 98 93 88 90 85 86 91 88 86 83 73 56 53 76 76 79 74 66 63 68 73 71 71 72 74 71
57 57 58 59 70 105 99 104 107 102 85 86 92 96 100 101 92 103 105 100 94 87 90 82 91 87 86 82 84 76 74 77 77 75 67 70 61 62 66 67 68 69 67 66 74
57 57 58 53 91 100 101 108 107 98 66 90 93 108 103 96 97 95 105 99 89 86 89 78 79 84 83 81 84 77 83 80 79 75 67 63 43 55 66 61 61 60 63 69 74
57 57 59 77 95 104 108 106 98 79 66 84 94 92 93 95 94 98 97 101 99 91 90 78 93 88 85 85 84 84 81 80 79 70 44 61 53 54 60 64 65 68 72 72 74
56 57 65 90 99 108 106 99 79 72 88 83 86 92 91 88 88 91 88 86 81 74 61 61 66 85 86 81 85 81 76 64 60 62 61 66 66 57 62 67 72 70 70 72 72
55 57 70 96 104 106 100 87 69 81 83 90 88 89 84 86 86 86 85 82 87 84 81 72 65 81 86 82 77 79 74 66 50 58 64 69 45 54 68 69 68 71 67 74 72
54 88 97 104 104 102 92 77 78 82 86 85 87 83 83 86 86 84 82 81 82 84 74 74 72 83 83 86 84 76 72 77 67 69 60 53 51 69 74 71 70 71 72 71 70
90 95 99 103 102 97 86 68 82 88 88 89 79 84 78 82 81 82 80 82 80 84 87 79 69 81 82 85 85 78 82 67 71 56 53 55 50 55 63 68 70 68 66 59 74
86 88 98 104 102 91 79 83 86 91 91 86 83 80 81 79 82 80 78 80 83 82 86 81 75 75 82 74 73 75 70 72 71 52 54 50 42 69 68 69 70 74 72 72 71
92 84 100 103 86 91 86 87 72 90 93 88 87 83 80 80 78 78 75 78 83 84 77 79 73 67 72 79 82 77 72 71 61 57 63 62 49 72 71 73 72 73 74 75 74
87 91 101 98 81 85 88 87 90 87 87 86 82 84 84 78 73 77 78 83 84 80 74 77 71 63 64 67 71 66 69 68 70 65 52 54 50 73 72 71 73 71 73 72 70
91 83 92 94 93 87 84 84 82 90 87 88 84 86 82 78 81 75 76 79 81 79 66 74 70 66 61 59 65 59 61 65 63 53 52 57 61 63 66 67 70 70 70 72 71
92 85 87 83 87 89 88 86 82 79 86 87 82 82 79 74 77 75 79 78 80 71 77 75 65 69 68 66 63 58 55 58 55 60 55 60 59 63 66 67 69 70 71 70 70
87 88 91 86 86 87 75 83 81 82 83 80 79 80 81 74 75 73 77 76 74 79 75 75 65 65 57 63 61 55 56 58 63 63 64 64 61 70 71 71 69 70 70 70 69
94 94 89 72 85 86 84 83 83 84 84 85 83 81 76 78 82 83 82 80 77 74 70 70 65 59 45 60 59 53 61 63 64 66 64 57 63 69 67 67 67 68 70 69 70
MSLP
1016.98 1016.77 1016.66 1016.48 1016.26 1016.06 1015.84 1015.58 1015.49 1015.25 1014.86 1014.58 1014.40 1014.14 1013.84 1013.58 1012.70 1012.07 1009.77 1009.83 1009.37 1009.79 1010.00 1008.90 1008.31 1007.15 1006.43 1004.88 1004.52 1005.80 1007.34 1004.24 1005.45 1005.13 1008.21 1010.45 1011.63 1014.14 1015.32 1017.02 1018.43 1019.54 1020.18 1021.28 1021.59
1016.96 1016.82 1016.67 1016.34 1016.05 1015.75 1015.64 1015.40 1015.31 1015.03 1014.68 1014.50 1014.20 1013.90 1013.78 1013.64 1011.86 1009.01 1009.82 1009.57 1009.64 1009.75 1009.03 1008.00 1007.11 1006.71 1005.19 1004.55 1003.84 1005.25 1007.00 1005.96 1006.71 1007.63 1008.85 1010.53 1011.69 1013.75 1015.88 1017.73 1019.76 1020.83 1021.59 1021.95 1021.79
1016.89 1016.71 1016.28 1016.01 1015.77 1015.74 1015.56 1015.24 1015.13 1014.84 1014.65 1014.32 1014.00 1013.76 1013.70 1013.42 1010.62 1008.75 1009.64 1009.73 1009.84 1009.81 1008.49 1007.28 1006.72 1006.28 1004.76 1004.28 1004.46 1004.50 1005.62 1006.52 1007.83 1008.55 1009.38 1011.11 1012.90 1014.34 1016.30 1018.96 1020.42 1021.41 1022.15 1022.44 1022.30
1016.72 1016.54 1016.26 1015.69 1015.82 1015.74 1015.36 1015.05 1014.90 1014.73 1014.54 1014.23 1013.81 1013.66 1013.50 1012.43 1008.80 1008.92 1009.66 1009.78 1009.96 1009.49 1008.24 1007.20 1006.54 1005.32 1004.53 1004.50 1005.53 1005.76 1006.73 1007.75 1009.05 1009.69 1010.52 1012.02 1014.03 1015.99 1017.24 1020.06 1021.17 1021.68 1021.96 1022.36 1022.70
1016.60 1016.40 1016.14 1015.78 1015.77 1015.58 1015.06 1014.88 1014.81 1014.68 1014.39 1014.05 1013.59 1013.54 1012.88 1010.14 1008.20 1009.17 1009.80 1009.96 1009.72 1009.25 1007.80 1006.85 1005.99 1004.39 1004.38 1005.23 1005.65 1006.27 1007.63 1008.63 1009.59 1010.17 1011.09 1012.58 1014.29 1017.08 1019.30 1020.58 1021.35 1021.83 1022.23 1022.57 1022.79
1016.72 1016.50 1015.94 1015.86 1015.66 1015.29 1014.74 1014.78 1014.61 1014.39 1014.12 1013.75 1013.49 1013.42 1011.60 1008.18 1007.94 1008.75 1008.67 1009.23 1008.17 1007.98 1006.87 1006.55 1005.03 1004.65 1005.31 1005.59 1005.45 1006.95 1008.32 1009.23 1009.80 1010.74 1012.00 1013.41 1015.23 1016.13 1019.26 1020.10 1020.68 1021.22 1021.41 1021.51 1021.90
1016.41 1016.11 1015.95 1015.80 1015.39 1014.86 1014.64 1014.56 1014.35 1014.05 1013.85 1013.47 1013.24 1012.47 1009.49 1007.53 1007.49 1008.04 1008.24 1007.42 1007.34 1006.31 1005.79 1005.59 1005.56 1005.47 1006.37 1006.57 1007.18 1008.05 1008.79 1009.78 1010.45 1010.97 1011.86 1013.24 1014.73 1016.84 1018.56 1019.54 1020.03 1020.55 1020.88 1021.08 1021.38
1016.66 1016.32 1015.68 1015.29 1015.04 1014.76 1014.49 1014.32 1014.09 1013.88 1013.49 1012.94 1012.77 1011.41 1007.75 1007.35 1007.34 1007.50 1007.40 1007.22 1007.05 1006.61 1006.44 1006.51 1005.94 1005.94 1005.96 1007.10 1008.28 1008.52 1008.65 1009.26 1010.34 1010.87 1011.69 1012.51 1014.28 1017.01 1018.51 1019.13 1019.61 1019.93 1020.15 1020.55 1020.67
1016.28 1015.68 1015.45 1015.23 1014.96 1014.67 1014.33 1014.08 1013.81 1013.55 1013.03 1012.68 1011.84 1009.65 1006.97 1008.12 1007.34 1006.84 1006.71 1006.47 1006.76 1006.75 1006.94 1007.03 1006.18 1006.16 1006.84 1006.73 1009.17 1012.14 1011.06 1010.17 1008.96 1010.39 1010.39 1012.16 1014.59 1016.80 1018.06 1018.85 1019.22 1019.33 1019.63 1020.14 1020.29
1016.06 1015.67 1015.49 1015.11 1014.85 1014.39 1014.09 1014.00 1013.56 1013.17 1012.61 1011.46 1010.29 1008.90 1006.79 1006.51 1006.35 1006.80 1006.95 1006.77 1006.47 1006.65 1006.78 1006.34 1005.50 1005.36 1005.20 1005.01 1006.27 1008.17 1009.23 1007.48 1007.17 1008.87 1009.96 1010.99 1013.94 1016.64 1017.99 1018.71 1018.59 1019.00 1019.36 1019.68 1020.25
1016.04 1015.56 1015.16 1014.89 1014.61 1014.18 1013.66 1013.17 1012.72 1011.49 1010.05 1008.04 1007.14 1006.54 1005.82 1006.06 1006.73 1006.79 1006.75 1006.64 1006.28 1006.14 1005.46 1005.16 1004.80 1003.96 1003.75 1004.21 1004.75 1005.72 1006.28 1006.64 1007.53 1009.01 1008.97 1010.38 1013.19 1015.88 1017.58 1018.28 1018.00 1018.58 1019.11 1019.58 1019.84
1015.60 1015.15 1014.88 1014.63 1014.27 1014.00 1013.79 1010.06 1009.28 1008.78 1007.40 1006.87 1006.85 1006.44 1006.21 1006.05 1006.18 1006.12 1006.36 1006.30 1005.76 1005.44 1004.95 1004.63 1004.01 1003.91 1004.22 1004.85 1005.23 1005.81 1006.11 1007.26 1009.37 1009.81 1009.30 1009.93 1012.64 1015.66 1017.21 1017.59 1017.84 1018.23 1018.90 1019.30 1019.98
1015.37 1015.08 1014.85 1014.68 1014.12 1013.62 1010.77 1009.26 1008.78 1008.39 1006.76 1006.45 1006.02 1005.53 1005.93 1005.71 1005.39 1005.53 1006.14 1005.69 1005.04 1004.61 1004.17 1004.21 1004.03 1004.98 1004.76 1004.77 1005.33 1006.81 1008.60 1010.04 1007.78 1008.98 1009.14 1010.50 1012.41 1015.23 1016.53 1017.22 1017.78 1018.26 1018.45 1019.08 1019.78
1015.26 1014.89 1014.51 1014.15 1014.07 1010.29 1009.17 1008.94 1008.48 1008.69 1006.41 1006.15 1005.47 1005.44 1005.65 1005.15 1005.20 1005.40 1005.49 1005.15 1004.44 1004.03 1003.94 1005.24 1005.36 1004.97 1004.72 1004.75 1005.48 1006.17 1008.50 1008.31 1007.84 1008.23 1008.87 1010.78 1010.71 1013.59 1015.44 1016.55 1017.31 1017.85 1018.55 1019.64 1019.67
1015.10 1014.68 1014.22 1014.13 1012.15 1009.23 1009.04 1008.48 1008.43 1008.47 1005.55 1005.36 1004.68 1004.86 1004.77 1004.61 1005.02 1005.45 1005.56 1005.30 1004.63 1004.79 1005.07 1006.17 1006.40 1005.29 1004.94 1005.92 1006.58 1007.09 1008.10 1008.14 1007.90 1008.32 1010.36 1011.20 1012.52 1014.37 1014.99 1016.35 1017.88 1017.87 1019.42 1019.48 1019.59
1014.85 1014.40 1014.20 1013.01 1011.35 1009.17 1008.75 1008.52 1008.63 1007.10 1004.90 1004.95 1004.64 1004.41 1004.16 1004.41 1004.73 1005.02 1005.11 1005.19 1005.00 1005.09 1005.35 1007.54 1006.42 1006.55 1006.37 1006.82 1007.15 1007.49 1007.63 1007.31 1007.29 1008.40 1011.55 1011.80 1013.06 1014.27 1015.15 1015.99 1017.43 1018.04 1018.42 1018.97 1019.39
1014.56 1014.30 1014.06 1011.99 1009.21 1008.96 1008.78 1008.07 1006.90 1004.99 1005.21 1004.74 1004.43 1004.44 1003.85 1004.48 1005.03 1005.00 1004.95 1004.97 1005.62 1006.35 1008.01 1009.57 1009.74 1007.67 1007.43 1006.90 1006.89 1007.40 1006.86 1006.62 1007.31 1007.81 1008.67 1010.67 1011.85 1015.46 1016.57 1016.08 1016.73 1017.41 1018.30 1018.86 1019.76
1014.36 1014.14 1012.60 1011.09 1009.92 1009.19 1008.68 1007.56 1005.83 1004.97 1004.76 1004.74 1004.64 1004.49 1004.36 1005.16 1005.49 1005.72 1005.59 1005.31 1006.19 1006.74 1006.40 1007.37 1007.74 1007.27 1007.40 1007.26 1007.30 1007.25 1007.22 1007.65 1008.46 1008.10 1008.91 1011.25 1015.40 1014.82 1016.04 1017.17 1017.53 1017.91 1018.99 1019.15 1019.78
1014.53 1012.69 1010.89 1009.65 1009.70 1009.49 1008.37 1006.19 1005.04 1004.99 1005.32 1005.04 1005.11 1004.72 1004.73 1005.44 1005.81 1005.93 1006.27 1006.86 1007.68 1007.85 1007.85 1007.27 1007.23 1007.82 1008.06 1008.02 1008.10 1007.76 1007.67 1008.60 1008.94 1008.94 1009.88 1013.74 1016.33 1015.07 1015.64 1016.48 1016.95 1017.55 1018.60 1019.14 1019.58
1013.21 1011.05 1009.48 1009.56 1009.74 1009.06 1007.61 1006.29 1005.89 1006.39 1006.05 1005.44 1004.84 1005.21 1004.77 1005.33 1005.86 1005.93 1006.49 1008.38 1008.54 1008.93 1008.68 1008.15 1008.16 1007.77 1008.17 1008.55 1008.05 1009.14 1009.18 1009.06 1008.78 1009.47 1010.54 1013.41 1015.42 1015.42 1015.64 1015.86 1016.95 1017.71 1018.76 1020.08 1019.80
1012.82 1010.23 1009.34 1009.40 1009.25 1008.21 1006.44 1006.16 1006.63 1006.73 1006.28 1005.50 1005.56 1005.98 1006.22 1006.55 1006.91 1006.77 1007.87 1009.62 1009.80 1009.59 1009.47 1009.55 1009.36 1008.92 1008.44 1009.45 1009.55 1009.56 1009.78 1010.53 1010.68 1013.62 1013.23 1013.25 1017.23 1015.96 1016.12 1016.74 1017.24 1017.24 1018.16 1019.08 1019.84
1011.33 1009.09 1009.11 1009.22 1008.37 1006.50 1005.91 1006.90 1007.59 1006.73 1006.81 1006.99 1007.39 1007.68 1007.85 1008.09 1008.17 1008.14 1009.44 1010.47 1010.92 1010.58 1010.33 1011.08 1011.07 1010.10 1009.73 1011.05 1011.60 1011.82 1011.96 1012.34 1012.51 1013.56 1013.72 1013.90 1017.23 1017.01 1017.18 1017.26 1017.95 1018.02 1018.41 1019.34 1020.27
1010.65 1008.93 1009.09 1008.97 1007.08 1006.18 1007.00 1007.27 1007.24 1007.45 1007.40 1007.73 1008.31 1008.70 1008.92 1009.11 1009.14 1009.52 1010.25 1011.68 1011.66 1012.09 1012.64 1012.45 1011.72 1011.48 1011.40 1013.51 1014.37 1014.41 1014.57 1014.97 1014.30 1015.13 1016.38 1015.29 1017.37 1017.37 1018.02 1018.23 1018.40 1018.94 1019.28 1019.93 1020.97
1010.19 1008.54 1008.45 1008.12 1007.24 1006.37 1006.97 1007.26 1008.09 1008.40 1008.65 1008.80 1009.09 1008.98 1009.17 1009.42 1009.90 1010.16 1010.80 1012.32 1012.83 1013.49 1014.02 1013.72 1013.39 1013.22 1013.59 1015.40 1016.25 1017.03 1017.41 1017.39 1017.30 1017.64 1017.85 1017.27 1016.89 1018.27 1018.78 1019.01 1019.15 1019.53 1019.95 1020.07 1020.67
1010.12 1008.54 1008.52 1007.53 1006.92 1006.50 1007.00 1007.45 1008.14 1008.78 1009.30 1009.44 1009.59 1009.82 1010.08 1009.98 1010.14 1010.65 1011.11 1012.19 1012.98 1014.08 1014.22 1014.26 1014.29 1015.14 1016.23 1017.75 1018.78 1019.36 1019.54 1019.60 1019.07 1018.63 1018.12 1018.08 1018.31 1019.10 1019.33 1019.65 1019.78 1020.06 1020.13 1020.27 1020.46
1010.22 1009.03 1008.73 1008.26 1007.92 1007.51 1008.26 1007.94 1008.45 1009.32 1009.28 1009.97 1010.35 1010.89 1011.12 1011.36 1011.52 1011.57 1011.96 1012.74 1013.20 1013.59 1014.41 1014.95 1015.32 1016.55 1018.25 1019.31 1020.14 1020.32 1020.40 1020.13 1019.33 1019.44 1018.66 1018.46 1019.07 1019.82 1019.83 1020.03 1020.08 1020.17 1020.38 1020.37 1020.59
1010.99 1009.91 1008.99 1008.90 1008.27 1007.60 1007.96 1008.67 1009.27 1010.14 1010.76 1010.98 1011.16 1011.41 1012.22 1012.63 1012.83 1013.17 1013.55 1014.08 1014.46 1014.41 1014.83 1015.21 1016.01 1017.28 1019.71 1019.99 1020.28 1020.30 1020.22 1019.72 1019.80 1020.16 1020.13 1019.85 1020.44 1020.30 1020.25 1020.38 1020.54 1020.64 1020.60 1020.63 1020.89
Wind_Speed
10 10 10 10 11 9 10 9 9 9 10 11 11 11 12 12 17 8 6 6 5 12 3 8 9 8 9 10 11 29 5 15 16 10 18 12 15 12 14 15 10 9 11 9 5
10 10 10 10 9 10 10 8 9 10 11 11 11 12 11 10 13 10 2 6 13 12 11 10 9 6 9 4 7 19 5 19 13 11 14 8 13 12 8 12 12 11 12 7 3
9 11 9 10 11 10 10 8 10 11 11 11 11 12 11 13 12 13 5 6 9 8 15 8 8 10 9 3 9 20 15 15 13 12 12 14 12 13 13 10 9 10 10 10 13
11 11 10 10 11 11 9 9 11 12 12 10 12 11 10 9 2 8 7 7 7 10 13 9 10 16 7 7 4 11 13 14 12 12 13 13 15 14 14 10 11 11 12 12 12
11 11 10 10 11 11 9 10 11 11 11 11 12 10 9 10 13 9 10 8 11 11 12 9 11 15 5 5 6 12 13 12 11 10 12 12 14 15 14 12 11 11 11 12 10
9 9 9 10 10 9 9 10 10 10 11 11 12 10 8 3 10 13 12 11 11 12 13 12 15 10 7 2 7 14 13 13 13 14 15 18 17 8 12 12 12 12 12 12 13
11 10 10 10 10 9 10 10 10 10 12 12 12 8 12 12 9 10 10 9 3 3 7 3 7 7 4 5 8 15 14 14 14 16 14 14 10 12 13 11 11 11 10 11 12
9 9 9 10 10 9 10 10 10 11 12 12 10 9 2 7 7 10 10 7 5 2 4 4 4 5 10 9 11 12 16 9 14 12 12 6 10 12 13 9 9 10 9 10 10
12 9 10 10 10 9 9 11 12 11 8 10 8 10 8 7 11 9 8 6 6 4 4 2 4 2 5 17 16 9 10 28 17 12 9 10 14 12 9 9 10 9 9 9 9
11 9 9 9 10 9 10 9 3 6 7 8 9 8 8 15 11 7 5 5 3 6 7 11 10 13 15 15 7 14 12 12 2 15 9 4 16 13 10 8 10 11 10 9 8
11 9 9 9 9 8 10 6 8 8 10 11 14 9 10 6 4 12 9 9 8 8 14 15 12 15 16 8 13 13 17 8 15 5 6 5 14 12 11 13 9 11 10 9 8
12 11 10 9 9 7 8 8 8 9 8 4 1 5 2 9 11 15 12 13 14 14 17 15 14 14 8 11 14 18 15 17 8 5 5 7 12 12 12 12 11 10 11 10 7
11 10 9 9 7 4 8 6 9 8 8 6 5 11 11 12 11 13 13 18 17 16 18 12 6 4 6 9 13 12 19 27 12 2 12 8 13 13 13 9 10 9 9 9 13
11 9 8 8 3 1 3 5 7 2 7 10 10 5 7 7 5 1 11 13 11 12 7 8 19 3 9 5 14 9 13 9 12 14 15 16 5 17 15 14 12 12 11 7 5
10 9 7 5 11 7 7 8 3 5 6 7 8 8 8 7 13 8 5 11 17 2 8 8 19 7 7 9 7 8 13 16 21 16 21 14 10 6 15 12 7 7 12 9 9
10 8 7 6 7 7 8 4 6 10 4 10 10 11 13 7 4 9 9 10 8 14 5 14 4 8 7 4 3 4 11 18 12 5 1 9 5 8 7 8 11 11 10 9 7
9 8 7 8 4 8 8 8 10 8 5 12 10 12 7 7 5 5 1 3 4 16 6 6 26 4 1 8 9 10 12 12 10 8 9 10 9 15 15 10 11 14 10 10 8
9 7 8 8 9 9 8 12 9 6 9 3 1 5 1 1 5 3 7 6 9 14 17 4 4 7 9 10 12 19 9 11 18 14 19 21 16 9 11 11 15 9 9 8 4
4 6 7 5 4 6 10 11 5 4 4 6 8 10 10 9 8 6 2 11 7 11 10 14 6 4 1 10 8 14 13 6 14 21 15 4 7 12 12 10 10 10 7 7 6
6 5 9 4 3 8 12 3 8 4 3 7 6 7 1 5 8 3 5 9 7 7 8 7 11 4 4 8 8 7 10 12 7 13 8 11 10 9 11 9 4 6 6 4 2
5 6 6 6 6 9 9 11 10 5 2 1 7 3 7 4 8 7 9 8 8 7 7 10 11 13 11 9 11 13 5 9 7 7 12 4 1 10 14 15 13 11 8 7 5
8 5 6 5 9 8 7 8 3 10 10 10 8 9 8 7 8 4 11 10 7 9 8 7 7 10 7 9 10 9 8 9 11 4 3 6 8 11 11 10 9 13 8 9 9
8 4 5 6 7 6 11 11 8 9 9 11 6 7 5 4 3 3 8 10 11 12 10 10 6 10 12 5 5 14 19 20 11 13 16 9 4 12 14 11 10 9 11 6 7
4 5 6 7 10 8 14 12 11 11 10 9 3 3 5 4 3 2 11 7 9 10 4 5 4 6 12 17 16 13 17 18 17 6 8 11 10 15 13 12 12 11 7 5 3
4 4 3 8 7 8 8 12 13 9 6 2 4 8 7 4 1 4 5 11 9 3 5 5 6 10 18 17 14 14 17 10 6 5 6 12 10 11 12 10 10 8 7 7 6
4 3 4 5 3 8 3 5 10 7 2 6 7 9 9 8 6 6 5 6 6 6 5 2 4 12 14 11 14 12 3 6 7 10 9 8 10 13 11 11 9 9 8 9 8
1 2 7 4 9 10 7 5 9 11 9 8 5 9 9 10 10 11 12 10 8 9 4 3 6 5 3 7 8 6 12 7 5 11 10 10 11 11 12 10 8 10 10 11 10
Wind_Direction
314 312 300 297 297 295 300 316 320 313 306 305 308 308 307 308 294 219 203 76 123 157 208 175 225 229 239 254 255 67 345 67 33 59 109 144 104 79 70 66 49 38 62 93 105
311 301 293 300 309 316 312 324 319 308 307 301 308 306 307 315 266 205 85 92 148 173 206 194 195 226 237 264 279 102 210 70 63 99 119 137 102 126 103 83 84 69 70 78 82
307 297 317 319 325 310 307 324 312 309 301 309 307 305 305 302 257 94 153 140 185 207 268 265 293 239 240 255 350 59 75 88 79 85 106 100 92 103 135 73 74 97 91 71 59
313 309 314 337 313 302 308 321 313 308 304 305 300 303 306 255 116 92 166 161 182 248 271 236 237 233 205 113 108 86 81 96 113 117 113 99 92 64 66 100 107 106 116 110 94
317 318 315 320 300 297 316 317 305 301 298 297 298 299 278 216 85 113 143 151 192 232 251 229 234 248 110 102 140 122 116 119 125 128 111 134 83 101 101 115 118 117 115 108 103
311 304 317 300 295 302 321 304 303 300 295 297 290 297 247 164 106 136 155 174 227 221 216 226 228 54 115 150 270 131 139 134 138 119 117 123 130 140 139 136 139 142 138 132 127
317 314 301 293 306 321 306 301 298 298 293 291 292 281 260 102 131 153 173 205 231 217 192 181 92 221 140 139 136 141 152 141 148 154 142 137 121 102 136 152 137 136 138 136 133
299 288 314 319 311 309 297 297 291 283 285 286 294 273 56 120 131 182 194 161 177 139 112 177 232 149 220 105 156 193 179 164 174 170 146 234 112 134 146 157 145 160 151 139 164
311 323 318 307 300 296 295 289 276 275 274 287 258 232 140 141 197 170 218 145 129 143 95 191 250 68 162 199 66 299 300 216 140 180 152 215 117 153 157 158 167 173 170 147 146
311 312 300 303 296 299 293 272 262 264 221 235 265 257 181 188 166 172 171 235 181 162 182 216 211 218 221 245 236 185 219 230 169 153 205 195 112 150 159 188 203 172 165 149 136
308 310 312 304 295 300 298 205 210 186 218 270 163 267 141 108 121 209 191 222 218 225 248 194 250 263 277 292 300 320 301 319 86 78 232 109 149 168 179 204 185 181 154 157 171
322 319 313 302 299 304 267 261 34 345 247 155 175 272 316 162 186 205 195 228 216 247 248 244 239 253 6 313 322 292 288 64 339 214 233 167 142 150 177 192 186 158 171 148 113
318 307 301 295 320 259 272 357 323 318 254 142 160 149 166 212 172 180 198 224 255 240 252 262 116 288 300 273 263 52 37 319 19 160 239 315 147 165 187 178 177 173 147 178 156
311 306 305 308 279 335 223 331 292 306 217 139 172 112 168 238 154 26 202 272 253 272 262 18 345 309 237 328 1 358 163 268 310 272 296 185 248 167 174 182 190 176 87 21 111
311 306 301 270 317 254 7 325 10 233 197 166 131 115 174 228 135 162 225 248 256 325 273 145 219 257 285 24 358 353 337 313 296 283 351 5 76 261 162 180 168 121 150 204 162
309 307 297 206 234 293 320 315 252 231 121 151 156 192 189 176 158 137 211 232 308 285 349 5 28 359 40 72 347 325 289 281 271 339 118 234 215 168 160 184 181 160 150 164 144
305 278 256 311 334 344 319 263 223 271 121 149 191 206 190 121 151 300 352 300 18 271 134 193 277 125 236 279 210 247 278 289 311 253 302 210 225 49 48 83 136 144 167 118 113
300 235 201 266 309 301 281 243 253 66 183 68 277 194 177 90 139 247 263 258 45 337 309 11 294 352 19 313 332 304 353 318 305 332 315 37 17 100 99 133 126 106 50 94 132
301 204 239 205 277 281 267 258 35 56 26 196 192 234 171 165 281 225 81 359 26 359 336 326 356 231 63 343 326 332 315 351 299 274 298 122 177 91 111 87 66 125 156 163 134
249 202 197 152 266 267 259 43 90 76 267 261 221 285 64 81 256 243 114 33 348 7 344 9 311 84 17 297 284 295 6 322 325 297 296 87 77 48 83 86 156 97 91 179 29
257 213 116 234 250 250 257 100 94 94 59 22 65 48 38 29 333 4 57 75 14 9 329 5 332 315 289 26 353 332 30 333 338 41 297 78 122 45 39 35 11 4 97 107 77
255 207 138 220 236 246 115 105 341 100 86 72 56 33 32 360 358 358 47 29 10 338 3 59 303 312 357 51 354 30 358 356 330 359 341 319 34 61 38 32 36 343 53 36 13
248 132 167 234 248 183 127 105 77 85 66 69 79 61 47 34 302 24 102 43 29 37 19 340 42 300 108 45 5 14 27 24 337 3 331 44 160 61 36 11 26 15 9 47 339
267 158 160 220 269 155 159 137 111 94 68 73 65 32 22 13 46 162 134 72 62 66 325 333 330 347 38 60 56 40 34 28 29 30 38 347 53 30 15 3 7 6 9 5 3
257 77 14 194 197 155 166 141 136 117 117 24 56 26 8 343 67 82 107 157 126 130 60 2 72 73 68 76 69 54 39 16 53 343 3 12 35 9 2 358 357 360 353 328 10
296 209 196 82 156 151 123 149 103 96 41 72 66 47 34 46 18 39 337 11 33 101 49 309 111 92 94 86 72 65 219 269 27 357 354 12 21 6 359 354 359 352 349 330 356
89 262 264 143 200 190 126 144 111 111 53 58 24 82 71 66 74 78 80 68 43 6 46 248 164 137 92 100 124 60 25 27 87 42 4 13 359 358 355 351 355 0 341 343 353